Woensdrecht, Netherlands

5:57 PM CEST on June 27, 2017 (GMT +0200)
Woensdrecht Air Base

Weather History for EHWO - May, 2013

Change the Weather History Date:

Tuesday, May 28, 2013

  Actual Average Record
Temperature  
Mean Temperature 55 °F -  
Max Temperature 71 °F 67 °F 80 °F (2017)
Min Temperature 39 °F 50 °F 35 °F (2004)
Degree Days  
Heating Degree Days 10    
Growing Degree Days 5 (Base 50)    
Moisture  
Dew Point 48 °F    
Average Humidity 79    
Maximum Humidity 94    
Minimum Humidity 33    
Precipitation  
Precipitation 0.00 in - - ()
Sea Level Pressure  
Sea Level Pressure 29.59 in    
Wind  
Wind Speed 6 mph ()    
Max Wind Speed 16 mph    
Max Gust Speed -    
Visibility 5.2 miles    
Events Rain    
Averages and records for this station are not official NWS values.
T = Trace of Precipitation, MM = Missing Value Source: Averaged Metar Reports

Daily Weather History Graph

Daily Weather History Graph

Search for Another Location

Airport or City:

Trip Planner

Search our weather history database for the weather conditions in past years. The results will help you decide how hot, cold, wet, or windy it might be!

Date:

Astronomy

May. 28, 2013 Rise Set
Actual Time 5:34 AM CEST 9:45 PM CEST
Civil Twilight 4:50 AM CEST 10:30 PM CEST
Nautical Twilight 3:46 AM CEST 11:35 PM CEST
Astronomical Twilight 2:12 AM CEST 1:07 AM CEST
Moon 12:02 AM CEST (5/28) 9:14 AM CEST (5/28)
Length of Visible Light 17h 39m
Length of Day
16h 10m
Waning Gibbous, 85% of the Moon is Illuminated
May 28
Waning Gibbous
May 31
Last Quarter
Jun 8
New
Jun 16
First Quarter
Jun 23
Full

Hourly Weather History & Observations

Time (CEST) Temp. Windchill Dew Point Humidity Pressure Visibility Wind Dir Wind Speed Gust Speed Precip Events Conditions
12:25 AM 44.6 °F 43.1 °F 41.0 °F 87% 29.77 in 6.2 mi ENE 3.5 mph - N/A   Unknown
12:55 AM 44.6 °F 43.1 °F 41.0 °F 87% 29.77 in 6.2 mi ENE 3.5 mph - N/A   Unknown
1:25 AM 42.8 °F 41.1 °F 39.2 °F 87% 29.74 in 6.2 mi ENE 3.5 mph - N/A   Unknown
1:55 AM 42.8 °F 41.1 °F 39.2 °F 87% 29.74 in 6.2 mi ENE 3.5 mph - N/A   Unknown
2:25 AM 42.8 °F 41.1 °F 39.2 °F 87% 29.74 in 6.2 mi ENE 3.5 mph - N/A   Unknown
2:55 AM 39.2 °F 35.0 °F 37.4 °F 93% 29.74 in 6.2 mi East 5.8 mph - N/A   Partly Cloudy
3:25 AM 41.0 °F 37.1 °F 39.2 °F 93% 29.71 in 6.2 mi East 5.8 mph - N/A   Unknown
3:55 AM 42.8 °F 38.6 °F 39.2 °F 87% 29.71 in 6.2 mi East 6.9 mph - N/A   Unknown
4:25 AM 46.4 °F 42.4 °F 41.0 °F 81% 29.68 in 6.2 mi East 8.1 mph - N/A   Unknown
4:55 AM 44.6 °F 41.4 °F 41.0 °F 87% 29.68 in 6.2 mi East 5.8 mph - N/A   Unknown
5:25 AM 42.8 °F 40.1 °F 39.2 °F 87% 29.68 in 6.2 mi East 4.6 mph - N/A   Unknown
5:55 AM 42.8 °F 39.3 °F 39.2 °F 87% 29.65 in 5.0 mi East 5.8 mph - N/A   Mist
6:01 AM 42.8 °F 39.3 °F 41.0 °F 93% 29.65 in 4.3 mi East 5.8 mph - N/A   Mist
6:02 AM 42.8 °F 39.3 °F 41.0 °F 93% 29.65 in 5.0 mi East 5.8 mph - N/A   Mist
6:11 AM 44.6 °F 41.4 °F 42.8 °F 93% 29.65 in 4.3 mi East 5.8 mph - N/A   Mist
6:25 AM 46.4 °F 43.5 °F 42.8 °F 87% 29.65 in 5.0 mi East 5.8 mph - N/A   Mist
6:39 AM 48.2 °F - 42.8 °F 82% 29.65 in 6.2 mi East 5.8 mph - N/A   Unknown
6:55 AM 48.2 °F - 42.8 °F 82% 29.65 in 5.6 mi East 5.8 mph - N/A   Mist
7:25 AM 51.8 °F - 44.6 °F 76% 29.65 in 6.2 mi East 6.9 mph - N/A   Unknown
7:55 AM 53.6 °F - 44.6 °F 72% 29.65 in 6.2 mi ESE 5.8 mph - N/A   Unknown
8:25 AM 55.4 °F - 44.6 °F 67% 29.65 in 6.2 mi ESE 6.9 mph - N/A   Unknown
8:55 AM 59.0 °F - 46.4 °F 63% 29.65 in 6.2 mi ESE 6.9 mph - N/A   Unknown
9:25 AM 60.8 °F - 46.4 °F 59% 29.62 in 6.2 mi East 8.1 mph - N/A   Unknown
9:55 AM 62.6 °F - 46.4 °F 55% 29.62 in 6.2 mi East 8.1 mph - N/A   Partly Cloudy
10:25 AM 64.4 °F - 46.4 °F 52% 29.62 in 6.2 mi East 10.4 mph - N/A   Partly Cloudy
10:55 AM 66.2 °F - 46.4 °F 49% 29.59 in 6.2 mi East 10.4 mph - N/A   Unknown
11:25 AM 66.2 °F - 42.8 °F 43% 29.59 in 6.2 mi East 11.5 mph - N/A   Unknown
11:55 AM 68.0 °F - 41.0 °F 37% 29.59 in 6.2 mi SE 12.7 mph - N/A   Scattered Clouds
12:25 PM 68.0 °F - 41.0 °F 37% 29.59 in 6.2 mi SE 11.5 mph - N/A   Partly Cloudy
12:55 PM 69.8 °F - 42.8 °F 38% 29.56 in 6.2 mi ESE 11.5 mph - N/A   Unknown
1:25 PM 69.8 °F - 42.8 °F 38% 29.56 in 6.2 mi East 13.8 mph - N/A   Scattered Clouds
1:55 PM 71.6 °F - 42.8 °F 35% 29.56 in 6.2 mi ESE 9.2 mph - N/A   Partly Cloudy
2:25 PM 71.6 °F - 41.0 °F 33% 29.53 in 6.2 mi ESE 10.4 mph - N/A   Scattered Clouds
2:55 PM 71.6 °F - 42.8 °F 35% 29.53 in 6.2 mi East 12.7 mph - N/A   Scattered Clouds
3:25 PM 71.6 °F - 42.8 °F 35% 29.53 in 6.2 mi ESE 10.4 mph - N/A   Partly Cloudy
3:55 PM 71.6 °F - 41.0 °F 33% 29.50 in 6.2 mi ESE 9.2 mph - N/A   Mostly Cloudy
4:25 PM 71.6 °F - 41.0 °F 33% 29.50 in 6.2 mi SE 9.2 mph - N/A   Mostly Cloudy
4:55 PM 69.8 °F - 44.6 °F 40% 29.50 in 6.2 mi East 9.2 mph - N/A   Overcast
5:25 PM 69.8 °F - 44.6 °F 40% 29.50 in 6.2 mi East 8.1 mph - N/A   Overcast
5:55 PM 62.6 °F - 50.0 °F 63% 29.53 in 6.2 mi SW 16.1 mph - N/A   Light Drizzle
6:25 PM 60.8 °F - 51.8 °F 72% 29.53 in 6.2 mi WSW 11.5 mph - N/A Rain Light Rain
6:55 PM 57.2 °F - 51.8 °F 82% 29.53 in 6.2 mi WSW 8.1 mph - N/A Rain Light Rain
7:15 PM 57.2 °F - 53.6 °F 88% 29.53 in 6.2 mi SW 8.1 mph - N/A   Overcast
7:25 PM 57.2 °F - 53.6 °F 88% 29.53 in 6.2 mi SW 8.1 mph - N/A Rain Light Rain
7:46 PM 57.2 °F - 55.4 °F 94% 29.56 in 3.1 mi SSW 4.6 mph - N/A Rain Light Rain
7:50 PM 57.2 °F - 55.4 °F 94% 29.56 in - SSW 3.5 mph - N/A Rain Rain Showers
7:55 PM 57.2 °F - 53.6 °F 88% 29.56 in 3.1 mi WSW 4.6 mph - N/A Rain Rain Showers
8:08 PM 55.4 °F - 53.6 °F 94% 29.53 in 3.7 mi West 9.2 mph - N/A Rain Rain Showers
8:18 PM 55.4 °F - 53.6 °F 94% 29.53 in - West 5.8 mph - N/A Rain Rain
8:25 PM 57.2 °F - 53.6 °F 88% 29.53 in - WSW 5.8 mph - N/A Rain Rain
8:33 PM 55.4 °F - 53.6 °F 94% 29.53 in 3.1 mi West 5.8 mph - N/A Rain Rain
8:42 PM 55.4 °F - 53.6 °F 94% 29.53 in - NW 4.6 mph - N/A Rain Rain
8:46 PM 55.4 °F - 53.6 °F 94% 29.53 in 3.1 mi NNW 3.5 mph - N/A Rain Rain Showers
8:50 PM 55.4 °F - 53.6 °F 94% 29.53 in 5.0 mi NW 3.5 mph - N/A Rain Rain Showers
8:55 PM 55.4 °F - 53.6 °F 94% 29.53 in 3.7 mi WNW 4.6 mph - N/A Rain Light Rain
8:59 PM 55.4 °F - 53.6 °F 94% 29.53 in 4.3 mi WNW 6.9 mph - N/A Rain Light Rain
9:07 PM 55.4 °F - 53.6 °F 94% 29.53 in 5.0 mi WNW 6.9 mph - N/A   Mostly Cloudy
9:11 PM 55.4 °F - 53.6 °F 94% 29.53 in 4.3 mi West 8.1 mph - N/A   Mostly Cloudy
9:15 PM 55.4 °F - 53.6 °F 94% 29.53 in 3.7 mi West 8.1 mph - N/A   Mostly Cloudy
9:19 PM 55.4 °F - 53.6 °F 94% 29.53 in 3.1 mi West 9.2 mph - N/A   Mostly Cloudy
9:25 PM 55.4 °F - 53.6 °F 94% 29.53 in 3.1 mi WNW 9.2 mph - N/A   Mostly Cloudy
9:31 PM 55.4 °F - 53.6 °F 94% 29.53 in - WNW 9.2 mph - N/A   Mostly Cloudy
9:35 PM 55.4 °F - 53.6 °F 94% 29.53 in 3.1 mi WNW 8.1 mph - N/A   Mostly Cloudy
9:55 PM 53.6 °F - 51.8 °F 94% 29.56 in 5.0 mi NW 6.9 mph - N/A   Overcast
10:03 PM 53.6 °F - 51.8 °F 94% 29.56 in 4.3 mi NW 4.6 mph - N/A   Mostly Cloudy
10:12 PM 53.6 °F - 51.8 °F 94% 29.56 in 4.3 mi WNW 5.8 mph - N/A   Mostly Cloudy
10:17 PM 53.6 °F - 51.8 °F 94% 29.56 in 4.3 mi West 5.8 mph - N/A   Mostly Cloudy
10:18 PM 53.6 °F - 51.8 °F 94% 29.56 in 4.3 mi West 6.9 mph - N/A Rain Light Rain
10:25 PM 53.6 °F - 51.8 °F 94% 29.56 in 3.7 mi West 8.1 mph - N/A Rain Light Rain
10:31 PM 53.6 °F - 51.8 °F 94% 29.56 in 3.7 mi West 8.1 mph - N/A Rain Rain
10:38 PM 53.6 °F - 51.8 °F 94% 29.56 in 3.1 mi West 6.9 mph - N/A Rain Light Rain
10:45 PM 53.6 °F - 51.8 °F 94% 29.59 in 3.7 mi WNW 5.8 mph - N/A Rain Light Rain
10:55 PM 53.6 °F - 51.8 °F 94% 29.56 in 3.7 mi WNW 6.9 mph - N/A Rain Light Rain
10:57 PM 53.6 °F - 51.8 °F 94% 29.56 in 3.7 mi WNW 8.1 mph - N/A   Light Drizzle
11:25 PM 53.6 °F - 51.8 °F 94% 29.56 in - West 5.8 mph - N/A Rain Light Rain
11:30 PM 53.6 °F - 51.8 °F 94% 29.59 in - NW 5.8 mph - N/A Rain Light Rain
11:37 PM 53.6 °F - 51.8 °F 94% 29.59 in - NNW 3.5 mph - N/A Rain Light Rain
11:38 PM 53.6 °F - 51.8 °F 94% 29.59 in 2.5 mi NW 2.3 mph - N/A Rain Light Rain
11:55 PM 53.6 °F - 51.8 °F 94% 29.59 in - West 4.6 mph - N/A Rain Rain